WetterOnline ( http://www.wetteronline.de )

Wetter aktuell Heiligenstadt

Aktuelles Wetter: Leinefelde (356m)

6-stündlich | Neueste Meldungen
Ortszeit Temperatur Wetter
Fr, 22.03. 7:00 5.0° C wolkenlos
Fr, 22.03. 1:00 7.8° C wolkenlos
Do, 21.03. 19:00 12.1° C wolkenlos
Do, 21.03. 13:00 13.4° C wolkenlos
Do, 21.03. 7:00 1.3° C wolkenlos
Do, 21.03. 1:00 4.8° C wolkenlos
Mi, 20.03. 19:00 9.5° C bedeckt
Mi, 20.03. 13:00 9.9° C leicht bewölkt
Ortszeit Temperatur Wetter
Fr, 22.03. 9:30 10.2° C fast wolkenlos
Fr, 22.03. 9:20 10.2° C fast wolkenlos
Fr, 22.03. 9:10 9.8° C fast wolkenlos
Fr, 22.03. 9:00 9.2° C fast wolkenlos
Fr, 22.03. 8:50 9.2° C fast wolkenlos
Fr, 22.03. 8:40 8.2° C leicht bewölkt
Fr, 22.03. 8:30 7.8° C leicht bewölkt
Fr, 22.03. 8:00 6.4° C fast wolkenlos
Fr, 22.03. 7:30 5.5° C leicht bewölkt
Fr, 22.03. 7:00 5.0° C wolkenlos
Fr, 22.03. 6:30 4.5° C leicht bewölkt
Ortszeit Relative Feuchte Sichtweite
Fr, 22.03. 7:00 90% 8 km
Fr, 22.03. 1:00 80% 25 km
Do, 21.03. 19:00 58% 50 km
Do, 21.03. 13:00 50% >70 km
Do, 21.03. 7:00 92% 17 km
Do, 21.03. 1:00 83% 40 km
Mi, 20.03. 19:00 61% 40 km
Mi, 20.03. 13:00 52% 35 km
Ortszeit Relative Feuchte Sichtweite
Fr, 22.03. 9:30 74% 9 km
Fr, 22.03. 9:20 74% -
Fr, 22.03. 9:10 76% -
Fr, 22.03. 9:00 81% 7 km
Fr, 22.03. 8:50 81% -
Fr, 22.03. 8:40 81% -
Fr, 22.03. 8:30 80% 7 km
Fr, 22.03. 8:00 85% 6 km
Fr, 22.03. 7:30 88% 5.0 km
Fr, 22.03. 7:00 90% 8 km
Fr, 22.03. 6:30 93% 6 km
Ortszeit Niederschlagsmenge Niederschlagsart
Fr, 22.03. 7:00 0.0 l/m2 in 12 Std. -
Fr, 22.03. 1:00 0.0 l/m2 in 6 Std. -
Do, 21.03. 19:00 0.0 l/m2 in 12 Std. -
Do, 21.03. 13:00 0.0 l/m2 in 6 Std. -
Do, 21.03. 7:00 0.0 l/m2 in 12 Std. -
Do, 21.03. 1:00 0.0 l/m2 in 6 Std. -
Mi, 20.03. 19:00 0.0 l/m2 in 12 Std. -
Mi, 20.03. 13:00 0.0 l/m2 in 6 Std. -
Ortszeit Niederschlagsmenge Niederschlagsart
Fr, 22.03. 9:30 0.0 l/m2 in 1 Std. -
Fr, 22.03. 9:20 keine Meldung -
Fr, 22.03. 9:10 keine Meldung -
Fr, 22.03. 9:00 0.0 l/m2 in 1 Std. -
Fr, 22.03. 8:50 keine Meldung -
Fr, 22.03. 8:40 keine Meldung -
Fr, 22.03. 8:30 0.0 l/m2 in 1 Std. -
Fr, 22.03. 8:00 0.0 l/m2 in 1 Std. -
Fr, 22.03. 7:30 0.0 l/m2 in 1 Std. -
Fr, 22.03. 7:00 0.0 l/m2 in 1 Std. -
Fr, 22.03. 6:30 0.0 l/m2 in 1 Std. -
Ortszeit Stärke Spitze Richtung
km/h Bft. km/h Grad Sektor
Fr, 22.03. 7:00 4 1 7 20° N
Fr, 22.03. 1:00 2 1 9 110° O
Do, 21.03. 19:00 7 2 18 340° N
Do, 21.03. 13:00 11 2 18 210° SW
Do, 21.03. 7:00 0 0 7 - -
Do, 21.03. 1:00 4 1 11 40° NO
Mi, 20.03. 19:00 7 2 25 280° W
Mi, 20.03. 13:00 11 2 25 230° SW
Ortszeit Stärke Spitze Richtung
km/h Bft. km/h Grad Sektor
Fr, 22.03. 9:30 7 2 11 110° O
Fr, 22.03. 9:20 7 2 - 110° O
Fr, 22.03. 9:10 4 1 - 90° O
Fr, 22.03. 9:00 7 2 11 60° NO
Fr, 22.03. 8:50 7 2 - 60° NO
Fr, 22.03. 8:40 4 1 - 60° NO
Fr, 22.03. 8:30 4 1 7 100° O
Fr, 22.03. 8:00 4 1 7 60° NO
Fr, 22.03. 7:30 4 1 7 50° NO
Fr, 22.03. 7:00 4 1 7 20° N
Fr, 22.03. 6:30 4 1 7 70° O
Ortszeit Untergrenze Bedeckung Gattung
total tief tief mittel hoch
Fr, 22.03. 7:00 10500 m 0/8 0/8 - - -
Fr, 22.03. 1:00 9000 m 0/8 0/8 - - -
Do, 21.03. 19:00 - 0/8 0/8 - - -
Do, 21.03. 13:00 - 0/8 0/8 - - -
Do, 21.03. 7:00 - 0/8 0/8 - - -
Do, 21.03. 1:00 - 0/8 0/8 - - -
Mi, 20.03. 19:00 1320 m 8/8 8/8 - - -
Mi, 20.03. 13:00 6300 m 2/8 2/8 - - -
Ortszeit Bedeckungsgrad in Achtel und Wolkenuntergrenze
Fr, 22.03. 9:30 1(8400m)
Fr, 22.03. 9:20 1(8400m) 1(9000m)
Fr, 22.03. 9:10 1(8400m)
Fr, 22.03. 9:00 1(9000m)
Fr, 22.03. 8:50 1(9000m) 2(10500m)
Fr, 22.03. 8:40 3(9000m)
Fr, 22.03. 8:30 4(9000m) 5(10500m)
Fr, 22.03. 8:00 1(9000m)
Fr, 22.03. 7:30 3(10500m)
Fr, 22.03. 7:00 1(10500m)
Fr, 22.03. 6:30 3(9000m)
Ortszeit Luftdruck NN (hPa) Tendenz (hPa in 3 Std.)
Fr, 22.03. 7:00 1034 + 0,2
Fr, 22.03. 1:00 1033 - 0,3
Do, 21.03. 19:00 1033 - 0,1
Do, 21.03. 13:00 1034 - 0,9
Do, 21.03. 7:00 1036 + 0,3
Do, 21.03. 1:00 1036 + 0,6
Mi, 20.03. 19:00 1034 + 0,2
Mi, 20.03. 13:00 1034 + 0,1
Ortszeit Luftdruck NN (hPa) Tendenz (hPa in 3 Std.)
Fr, 22.03. 9:30 1033 + 0,4
Fr, 22.03. 9:20 1033 keine Meldung
Fr, 22.03. 9:10 1033 keine Meldung
Fr, 22.03. 9:00 1033 + 0,7
Fr, 22.03. 8:50 1033 keine Meldung
Fr, 22.03. 8:40 1033 keine Meldung
Fr, 22.03. 8:30 1033 + 0,7
Fr, 22.03. 8:00 1034 + 0,6
Fr, 22.03. 7:30 1034 + 0,3
Fr, 22.03. 7:00 1034 + 0,2
Fr, 22.03. 6:30 1034 + 0,2
Ortszeit Schneehöhe (cm)
Fr, 22.03. 7:00 0
Fr, 22.03. 1:00 0
Do, 21.03. 19:00 0
Do, 21.03. 13:00 0
Do, 21.03. 7:00 0
Do, 21.03. 1:00 0
Mi, 20.03. 19:00 0
Mi, 20.03. 13:00 0
Ortszeit Schneehöhe (cm)
Fr, 22.03. 9:30 0
Fr, 22.03. 9:20 0
Fr, 22.03. 9:10 0
Fr, 22.03. 9:00 0
Fr, 22.03. 8:50 0
Fr, 22.03. 8:40 0
Fr, 22.03. 8:30 0
Fr, 22.03. 8:00 0
Fr, 22.03. 7:30 0
Fr, 22.03. 7:00 0
Fr, 22.03. 6:30 0
Link zu dieser Seite / Seite empfehlen

Das Wetter in ...